Weather History for Rotterdam, Netherlands

Change the Weather History Date:

Tuesday, January 14, 2014

  Actual Average Record
Temperature  
Mean Temperature 42 °F -  
Max Temperature 44 °F 42 °F 51 °F (1998)
Min Temperature 39 °F 33 °F 21 °F (2013)
Degree Days  
Heating Degree Days 24    
Moisture  
Dew Point 40 °F    
Average Humidity 90    
Maximum Humidity 100    
Minimum Humidity 79    
Precipitation  
Precipitation 0.08 in - - ()
Sea Level Pressure  
Sea Level Pressure 29.66 in    
Wind  
Wind Speed 9 mph ()    
Max Wind Speed 13 mph    
Max Gust Speed -    
Visibility 7.2 miles    
Events Rain    
Averages and records for this station are not official NWS values.
T = Trace of Precipitation, MM = Missing Value Source: Averaged Metar Reports

Daily Weather History Graph

Daily Weather History Graph

Search for Another Location

Airport:

Trip Planner

Search our weather history database for the weather conditions in past years. The results will help you decide how hot, cold, wet, or windy it might be!

Date:

Astronomy

Jan. 14, 2014 Rise Set
Actual Time 8:44 AM CET 4:58 PM CET
Civil Twilight 8:04 AM CET 5:38 PM CET
Nautical Twilight 7:22 AM CET 6:20 PM CET
Astronomical Twilight 6:42 AM CET 7:00 PM CET
Moon 3:54 PM CET (1/14) 7:04 AM CET (1/14)
Length of Visible Light 9h 33m
Length of Day
8h 14m
Waxing Gibbous, 97% of the Moon is Illuminated
Jan 14
Waxing Gibbous
Jan 16
Full
Jan 24
Last Quarter
Jan 30
New
Feb 6
First Quarter

Hourly Weather History & Observations

Time (CET) Temp. Windchill Dew Point Humidity Pressure Visibility Wind Dir Wind Speed Gust Speed Precip Events Conditions
12:00 AM 41 °F - 39 °F 89% 29.70 in 7 mi SSE 11.2 mph - -  
12:25 AM 41.0 °F 34.7 °F 39.2 °F 93% 29.68 in 6.2 mi SSE 10.4 mph - N/A   Unknown
12:55 AM 41.0 °F 34.3 °F 39.2 °F 93% 29.68 in 6.2 mi SSE 11.5 mph - N/A   Unknown
1:00 AM 40 °F - 39 °F 94% 29.69 in 7 mi SSE 11.2 mph - -   Partly Cloudy
1:25 AM 41.0 °F 35.2 °F 39.2 °F 93% 29.68 in 6.2 mi SSE 9.2 mph - N/A   Unknown
1:55 AM 41.0 °F 34.7 °F 39.2 °F 93% 29.65 in 6.2 mi SSE 10.4 mph - N/A   Unknown
2:00 AM 41 °F - 39 °F 89% 29.67 in 7 mi South 11.2 mph - -   Mostly Cloudy
2:25 AM 41.0 °F 35.2 °F 39.2 °F 93% 29.65 in 6.2 mi SSE 9.2 mph - N/A   Unknown
2:55 AM 41.0 °F 34.7 °F 39.2 °F 93% 29.65 in 6.2 mi SSE 10.4 mph - N/A   Unknown
3:00 AM 41 °F - 39 °F 90% 29.66 in 7 mi SSE 11.2 mph - -   Overcast
3:25 AM 41.0 °F 34.3 °F 39.2 °F 93% 29.65 in 6.2 mi SSE 11.5 mph - N/A   Scattered Clouds
3:55 AM 41.0 °F 34.7 °F 39.2 °F 93% 29.65 in 6.2 mi SSE 10.4 mph - N/A   Unknown
4:00 AM 40 °F - 39 °F 93% 29.65 in 8 mi SSE 8.9 mph - -   Overcast
4:25 AM 41.0 °F 34.7 °F 39.2 °F 93% 29.62 in 6.2 mi South 10.4 mph - N/A   Mostly Cloudy
4:55 AM 41.0 °F 34.7 °F 39.2 °F 93% 29.62 in 6.2 mi SSE 10.4 mph - N/A   Unknown
5:00 AM 40 °F - 39 °F 94% 29.64 in 9 mi SSE 8.9 mph - -   Scattered Clouds
5:25 AM 41.0 °F 34.7 °F 39.2 °F 93% 29.62 in 6.2 mi SSE 10.4 mph - N/A   Unknown
5:55 AM 41.0 °F 35.2 °F 39.2 °F 93% 29.62 in 6.2 mi SSE 9.2 mph - N/A   Unknown
6:00 AM 41 °F - 39 °F 89% 29.62 in 10 mi SSE 8.9 mph - -   Mostly Cloudy
6:25 AM 41.0 °F 35.2 °F 39.2 °F 93% 29.62 in 6.2 mi SSE 9.2 mph - N/A   Unknown
6:55 AM 41.0 °F 35.2 °F 39.2 °F 93% 29.59 in 6.2 mi SSE 9.2 mph - N/A   Unknown
7:00 AM 41 °F - 38 °F 87% 29.62 in 11 mi SSE 8.9 mph - -   Partly Cloudy
7:25 AM 41.0 °F 35.8 °F 39.2 °F 93% 29.59 in 6.2 mi SE 8.1 mph - N/A   Unknown
7:55 AM 41.0 °F 33.9 °F 39.2 °F 93% 29.59 in 6.2 mi SE 12.7 mph - N/A   Partly Cloudy
8:00 AM 41 °F - 39 °F 89% 29.62 in 15 mi SE 11.2 mph - -   Overcast
8:25 AM 41.0 °F 34.3 °F 39.2 °F 93% 29.59 in 6.2 mi SE 11.5 mph - N/A   Mostly Cloudy
8:55 AM 42.8 °F 36.2 °F 39.2 °F 87% 29.59 in 6.2 mi SE 12.7 mph - N/A   Partly Cloudy
9:00 AM 42 °F - 39 °F 85% 29.62 in 17 mi SE 11.2 mph - - Rain Rain
9:25 AM 42.8 °F 36.2 °F 39.2 °F 87% 29.62 in 6.2 mi SE 12.7 mph - N/A Rain Light Rain
9:55 AM 42.8 °F 37.0 °F 39.2 °F 87% 29.62 in 6.2 mi SSE 10.4 mph - N/A   Light Drizzle
10:00 AM 43 °F - 40 °F 83% 29.62 in 9 mi SSE 11.2 mph - - Rain Drizzle
10:25 AM 42.8 °F 36.6 °F 39.2 °F 87% 29.62 in 6.2 mi SSE 11.5 mph - N/A Rain Light Rain
10:55 AM 42.8 °F 36.6 °F 41.0 °F 93% 29.62 in 6.2 mi SSE 11.5 mph - N/A Rain Light Rain Showers
11:00 AM 43 °F - 40 °F 85% 29.63 in 7 mi SSE 11.2 mph - - Rain Rain
11:25 AM 42.8 °F 37.0 °F 41.0 °F 93% 29.62 in 6.2 mi SE 10.4 mph - N/A Rain Light Rain
11:55 AM 42.8 °F 37.5 °F 41.0 °F 93% 29.62 in 5.6 mi SE 9.2 mph - N/A Rain Light Rain
12:00 PM 43 °F - 41 °F 92% 29.62 in 6 mi SE 8.9 mph - - Rain Heavy Rain
12:25 PM 42.8 °F 37.5 °F 41.0 °F 93% 29.62 in 6.2 mi SE 9.2 mph - N/A   Mostly Cloudy
12:55 PM 42.8 °F 37.0 °F 41.0 °F 93% 29.62 in 6.2 mi SSE 10.4 mph - N/A Rain Light Rain
1:00 PM 44 °F - 41 °F 87% 29.62 in 8 mi SSE 8.9 mph - - Rain Light Rain Showers
1:25 PM 42.8 °F 37.0 °F 41.0 °F 93% 29.62 in 4.3 mi SSE 10.4 mph - N/A   Light Drizzle
1:55 PM 42.8 °F 38.0 °F 41.0 °F 93% 29.62 in 6.2 mi SSE 8.1 mph - N/A   Mostly Cloudy
2:00 PM 43 °F - 41 °F 91% 29.63 in 9 mi South 8.9 mph - - Rain Rain
2:25 PM 44.6 °F 39.7 °F 41.0 °F 87% 29.62 in 6.2 mi South 9.2 mph - N/A   Overcast
2:55 PM 42.8 °F 38.0 °F 39.2 °F 87% 29.62 in 6.2 mi South 8.1 mph - N/A   Overcast
3:00 PM 43 °F - 39 °F 82% 29.65 in 25 mi South 6.7 mph - -   Partly Cloudy
3:25 PM 42.8 °F 39.3 °F 39.2 °F 87% 29.62 in 6.2 mi South 5.8 mph - N/A   Overcast
3:55 PM 42.8 °F 39.3 °F 39.2 °F 87% 29.65 in 6.2 mi SSW 5.8 mph - N/A   Overcast
4:00 PM 43 °F - 40 °F 83% 29.67 in 25 mi South 4.5 mph - -   Partly Cloudy
4:25 PM 42.8 °F 38.0 °F 39.2 °F 87% 29.65 in 6.2 mi South 8.1 mph - N/A   Overcast
4:55 PM 42.8 °F 38.6 °F 39.2 °F 87% 29.65 in 6.2 mi South 6.9 mph - N/A   Overcast
5:00 PM 43 °F - 40 °F 85% 29.68 in 22 mi South 6.7 mph - -   Partly Cloudy
5:25 PM 42.8 °F 38.0 °F 41.0 °F 93% 29.68 in 6.2 mi South 8.1 mph - N/A   Overcast
5:55 PM 42.8 °F 38.6 °F 41.0 °F 93% 29.68 in 6.2 mi South 6.9 mph - N/A   Overcast
6:00 PM 43 °F - 41 °F 90% 29.70 in 7 mi South 6.7 mph - - Rain Light Drizzle
6:25 PM 42.8 °F 39.3 °F 41.0 °F 93% 29.68 in 6.2 mi South 5.8 mph - N/A   Overcast
6:55 PM 42.8 °F 38.0 °F 41.0 °F 93% 29.71 in 6.2 mi SSW 8.1 mph - N/A   Overcast
7:00 PM 43 °F - 42 °F 92% 29.72 in 6 mi WSW 6.7 mph - - Rain Light Rain Showers
7:25 PM 42.8 °F 38.0 °F 42.8 °F 100% 29.71 in - WSW 8.1 mph - N/A Rain Rain
7:55 PM 42.8 °F 38.6 °F 41.0 °F 93% 29.71 in 6.2 mi WSW 6.9 mph - N/A   Overcast
8:00 PM 43 °F - 41 °F 90% 29.74 in 15 mi WSW 6.7 mph - - Rain Rain
8:25 PM 42.8 °F 38.0 °F 39.2 °F 87% 29.74 in 6.2 mi WSW 8.1 mph - N/A   Overcast
8:55 PM 42.8 °F 37.5 °F 39.2 °F 87% 29.74 in 6.2 mi WSW 9.2 mph - N/A   Overcast
9:00 PM 43 °F - 39 °F 79% 29.75 in 25 mi WSW 8.9 mph - -   Partly Cloudy
9:25 PM 42.8 °F 38.6 °F 39.2 °F 87% 29.74 in 6.2 mi WSW 6.9 mph - N/A   Overcast
9:55 PM 41.0 °F 37.1 °F 37.4 °F 87% 29.74 in 6.2 mi SW 5.8 mph - N/A   Overcast
10:00 PM 41 °F - 38 °F 83% 29.76 in 22 mi SW 6.7 mph - -   Partly Cloudy
10:25 PM 41.0 °F 37.1 °F 37.4 °F 87% 29.74 in 6.2 mi SW 5.8 mph - N/A   Overcast
10:55 PM 41.0 °F 36.4 °F 37.4 °F 87% 29.74 in 6.2 mi SW 6.9 mph - N/A   Overcast
11:00 PM 42 °F - 38 °F 80% 29.76 in 19 mi SSW 4.5 mph - -   Partly Cloudy
11:25 PM 42.8 °F 39.3 °F 37.4 °F 81% 29.74 in 6.2 mi SSW 5.8 mph - N/A   Overcast
11:55 PM 41.0 °F 36.4 °F 37.4 °F 87% 29.74 in 6.2 mi SSW 6.9 mph - N/A   Scattered Clouds